User: anonymous   Login
Location: Mt. Chestnut Observatory
(40.9038°N, 79.9956°W)
Time: 13:16:38
(UTC-05:00)
Language:

Cosmos 2034 Rocket - Orbit

View from above orbital plane
View from above orbital plane
View from above satellite
View from above satellite

Ground track
Ground track

The orbit data is extracted from the following two-line orbital elements,

1 20150U 89059B   16337.90686811 +.00000053 +00000-0 +38846-4 0  9999
2 20150 082.9416 239.6887 0030156 109.3264 298.2404 13.75631535373194
Epoch (UTC): 02 December 2016 21:45:53
Eccentricity: 0.0030156
inclination: 82.9416°
perigee height: 957 km
apogee height: 1001 km
right ascension of ascending node: 239.6887°
argument of perigee: 109.3264°
revolutions per day: 13.75631535
mean anomaly at epoch: 298.2404°
orbit number at epoch: 37319

The dashed part of the orbit path shows where the satellite is in the earth's shadow,  

DLR